Location: ??????
(41.3794°N, 22.5014°E)
Time: 06:59:46
(UTC+00:00)

Meteor 1-26 Rocket - Pass Details

Date: 30 November 2020
Orbit: 807 x 928 km, 81.3° (Epoch: 17 January)

Event Time Altitude Azimuth Distance (km) Brightness Sun altitude
Rises 16:08:23 0° 185° (S) 3,552 7.8 -12.3°
Reaches altitude 10° 16:10:51 10° 185° (S) 2,619 7.1 -12.8°
Maximum altitude 16:16:52 84° 99° (E) 938 4.4 -13.8°
Drops below altitude 10° 16:22:55 10° 11° (N) 2,627 6.5 -14.9°
Sets 16:25:23 0° 11° (N) 3,564 7.2 -15.4°
